This is the latest recevied weather packets stored in our database for station/object KC6NLX-13. If no packets are shown the sender has not sent any weather packets the latest 10 day(s).
| Time | Temp. | Humidity | Pressure | Rain* | Wind** | Luminosity | Snow |
|---|---|---|---|---|---|---|---|
| 1778217604 | 11.67° C | 56% | 1013.6 hPa | 0 mm | - | - | - |
| 1778217544 | 11.67° C | 57% | 1013.9 hPa | 0 mm | - | - | - |
| 1778217484 | 11.67° C | 57% | 1013.6 hPa | 0 mm | - | - | - |
| 1778217424 | 11.67° C | 57% | 1013.6 hPa | 0 mm | - | - | - |
| 1778217364 | 11.67° C | 56% | 1013.6 hPa | 0 mm | - | - | - |
| 1778217304 | 11.67° C | 55% | 1013.6 hPa | 0 mm | - | - | - |
| 1778217244 | 11.67° C | 55% | 1013.6 hPa | 0 mm | - | - | - |
| 1778217184 | 11.67° C | 54% | 1013.6 hPa | 0 mm | - | - | - |
| 1778217124 | 11.67° C | 53% | 1013.9 hPa | 0 mm | - | - | - |
| 1778217064 | 11.11° C | 64% | 1014.3 hPa | 0 mm | - | - | - |
| 1778217004 | 11.11° C | 64% | 1014.6 hPa | 0 mm | - | - | - |
| 1778216944 | 11.11° C | 65% | 1014.6 hPa | 0 mm | - | - | - |
| 1778216884 | 10.56° C | 67% | 1014.6 hPa | 0 mm | - | - | - |
| 1778216824 | 10.56° C | 67% | 1014.6 hPa | 0 mm | - | - | - |
| 1778216764 | 11.11° C | 65% | 1014.6 hPa | 0 mm | - | - | - |
| 1778216704 | 11.11° C | 65% | 1014.6 hPa | 0 mm | - | - | - |
| 1778216644 | 11.11° C | 64% | 1014.3 hPa | 0 mm | - | - | - |
| 1778216584 | 11.11° C | 62% | 1014.3 hPa | 0 mm | - | - | - |
| 1778216524 | 11.11° C | 63% | 1014.3 hPa | 0 mm | - | - | - |
| 1778216464 | 11.11° C | 63% | 1013.9 hPa | 0 mm | - | - | - |
| 1778216404 | 11.11° C | 62% | 1013.9 hPa | 0 mm | - | - | - |
| 1778216344 | 11.67° C | 62% | 1013.6 hPa | 0 mm | - | - | - |
| 1778216284 | 11.67° C | 62% | 1013.6 hPa | 0 mm | - | - | - |
| 1778216224 | 11.11° C | 62% | 1013.6 hPa | 0 mm | - | - | - |
| 1778216164 | 11.11° C | 62% | 1013.6 hPa | 0 mm | - | - | - |
* Rain latest hour (hover to see other rain measurements)
** Current wind speed in m/s (hover to see current wind gust speed)